EJU57UM LIMC-EDDM

Flight info

Callsign EJU57UM
Flight time 0h 47m
Altitude 30000
Route OSKOR DCT NESTI DCT TAGIP DCT GUNGO DCT IVKAL T102 NINUR T101 BETOS
Aircraft A319/M-SDE2E3FGIJ1RWXYZ/LB1

Departure

Time 2026-05-05 13:30
Airport Milan Malpensa International Airport (LIMC)

Arrival

Time 2026-05-05 14:17
Airport Munich Airport (EDDM)
Time Latitude Longitude Altitude Speed Heading
2026-05-05 11:21 45.64136 8.72440 741 ft 0 kts 79°
2026-05-05 11:34 45.64136 8.72439 741 ft 0 kts 79°
2026-05-05 12:36 45.64136 8.72438 741 ft 0 kts 79°
2026-05-05 13:21 45.64138 8.72452 741 ft 3 kts 79°
2026-05-05 13:21 45.64140 8.72468 740 ft 2 kts 81°
2026-05-05 13:21 45.64120 8.72503 741 ft 7 kts 145°
2026-05-05 13:22 45.64049 8.72535 741 ft 13 kts 165°
2026-05-05 13:22 45.63967 8.72561 741 ft 11 kts 169°
2026-05-05 13:22 45.63898 8.72580 739 ft 9 kts 168°
2026-05-05 13:22 45.63842 8.72595 739 ft 7 kts 168°
2026-05-05 13:23 45.63792 8.72610 741 ft 9 kts 168°
2026-05-05 13:23 45.63714 8.72632 739 ft 14 kts 167°
2026-05-05 13:23 45.63629 8.72655 741 ft 14 kts 170°
2026-05-05 13:23 45.63509 8.72691 741 ft 21 kts 169°
2026-05-05 13:24 45.63362 8.72726 741 ft 20 kts 166°
2026-05-05 13:24 45.63233 8.72763 740 ft 18 kts 170°
2026-05-05 13:24 45.63122 8.72795 740 ft 15 kts 167°
2026-05-05 13:24 45.63028 8.72821 741 ft 13 kts 169°
2026-05-05 13:25 45.62950 8.72841 740 ft 10 kts 169°
2026-05-05 13:25 45.62870 8.72862 741 ft 15 kts 169°
2026-05-05 13:25 45.62748 8.72927 741 ft 17 kts 155°
2026-05-05 13:25 45.62623 8.72938 741 ft 20 kts 177°
2026-05-05 13:26 45.62455 8.72974 740 ft 29 kts 169°
2026-05-05 13:26 45.62250 8.73034 741 ft 30 kts 168°
2026-05-05 13:26 45.62044 8.73092 740 ft 30 kts 169°
2026-05-05 13:26 45.61838 8.73149 741 ft 30 kts 169°
2026-05-05 13:27 45.61685 8.73327 741 ft 30 kts 124°
2026-05-05 13:27 45.61601 8.73510 741 ft 17 kts 117°
2026-05-05 13:27 45.61595 8.73674 740 ft 18 kts 73°
2026-05-05 13:27 45.61657 8.73724 739 ft 0 kts 350°
2026-05-05 13:29 45.61659 8.73724 739 ft 1 kts 350°
2026-05-05 13:29 45.61661 8.73723 739 ft 0 kts 350°
2026-05-05 13:29 45.61722 8.73708 740 ft 36 kts 349°
2026-05-05 13:30 45.62230 8.73569 740 ft 110 kts 349°
2026-05-05 13:30 45.63183 8.73304 765 ft 163 kts 349°
2026-05-05 13:30 45.64286 8.73055 1448 ft 161 kts 360°
2026-05-05 13:30 45.65334 8.73606 2093 ft 165 kts 42°
2026-05-05 13:31 45.65936 8.74957 2784 ft 165 kts 73°
2026-05-05 13:31 45.66481 8.76421 3490 ft 169 kts 51°
2026-05-05 13:31 45.67349 8.77540 4187 ft 171 kts 42°
2026-05-05 13:31 45.68289 8.78589 4869 ft 174 kts 41°
2026-05-05 13:32 45.69306 8.79721 5232 ft 196 kts 41°
2026-05-05 13:32 45.70431 8.80989 5647 ft 214 kts 41°
2026-05-05 13:32 45.71607 8.82334 6292 ft 219 kts 42°
2026-05-05 13:32 45.72548 8.84098 6618 ft 236 kts 76°
2026-05-05 13:33 45.72491 8.86420 7299 ft 238 kts 112°
2026-05-05 13:33 45.71623 8.88447 8143 ft 241 kts 131°
2026-05-05 13:33 45.70591 8.90360 9007 ft 247 kts 130°
2026-05-05 13:33 45.69556 8.92354 9876 ft 253 kts 130°
2026-05-05 13:34 45.68506 8.94410 10680 ft 258 kts 130°
2026-05-05 13:34 45.67441 8.96507 11519 ft 262 kts 130°
2026-05-05 13:34 45.66373 8.98613 12357 ft 266 kts 131°
2026-05-05 13:34 45.65340 9.00843 13187 ft 274 kts 121°
2026-05-05 13:35 45.64703 9.03466 13924 ft 290 kts 106°
2026-05-05 13:35 45.64570 9.06494 14211 ft 319 kts 93°
2026-05-05 13:35 45.64599 9.09774 14480 ft 342 kts 92°
2026-05-05 13:35 45.64633 9.13291 14760 ft 363 kts 92°
2026-05-05 13:36 45.64668 9.16948 15344 ft 372 kts 92°
2026-05-05 13:36 45.64698 9.20671 16031 ft 377 kts 93°
2026-05-05 13:36 45.64723 9.24448 16730 ft 382 kts 93°
2026-05-05 13:36 45.64741 9.28263 17423 ft 387 kts 93°
2026-05-05 13:37 45.64755 9.32148 18115 ft 392 kts 93°
2026-05-05 13:37 45.64768 9.36071 18751 ft 397 kts 94°
2026-05-05 13:37 45.64779 9.40022 19509 ft 400 kts 94°
2026-05-05 13:37 45.64782 9.40949 19663 ft 401 kts 94°
2026-05-05 13:38 45.64782 9.40973 19668 ft 401 kts 94°
2026-05-05 13:38 45.64795 9.44986 20286 ft 405 kts 93°
2026-05-05 13:38 45.64806 9.49022 20934 ft 408 kts 94°
2026-05-05 13:39 45.64813 9.53085 21619 ft 412 kts 94°
2026-05-05 13:39 45.64817 9.57154 22157 ft 415 kts 94°
2026-05-05 13:39 45.64825 9.61294 22800 ft 419 kts 94°
2026-05-05 13:39 45.64837 9.65462 23441 ft 422 kts 93°
2026-05-05 13:40 45.64854 9.69675 23980 ft 426 kts 93°
2026-05-05 13:40 45.64869 9.73936 24476 ft 430 kts 94°
2026-05-05 13:40 45.64881 9.78220 24965 ft 434 kts 94°
2026-05-05 13:40 45.64891 9.82554 25425 ft 438 kts 93°
2026-05-05 13:41 45.64901 9.86921 25917 ft 441 kts 93°
2026-05-05 13:41 45.64910 9.91327 26389 ft 445 kts 94°
2026-05-05 13:41 45.64914 9.95770 26860 ft 448 kts 93°
2026-05-05 13:41 45.64914 10.00241 27342 ft 452 kts 94°
2026-05-05 13:42 45.64970 10.04758 27788 ft 458 kts 88°
2026-05-05 13:42 45.65470 10.09284 28230 ft 465 kts 78°
2026-05-05 13:42 45.66501 10.13692 28668 ft 471 kts 68°
2026-05-05 13:42 45.68045 10.17840 29110 ft 476 kts 57°
2026-05-05 13:43 45.69960 10.21717 29504 ft 479 kts 54°
2026-05-05 13:43 45.71907 10.25601 29886 ft 481 kts 54°
2026-05-05 13:43 45.75724 10.33282 29984 ft 462 kts 54°
2026-05-05 13:44 45.79402 10.40702 29985 ft 456 kts 54°
2026-05-05 13:44 45.83071 10.48112 29983 ft 455 kts 54°
2026-05-05 13:45 45.86736 10.55505 29987 ft 455 kts 54°
2026-05-05 13:45 45.90373 10.62898 29991 ft 455 kts 54°
2026-05-05 13:46 45.94634 10.69532 29978 ft 452 kts 35°
2026-05-05 13:46 45.99077 10.73391 29974 ft 447 kts 25°
2026-05-05 13:47 46.05490 10.78296 29982 ft 446 kts 25°
2026-05-05 13:47 46.10964 10.82517 30027 ft 445 kts 26°
2026-05-05 13:48 46.15487 10.86010 30038 ft 443 kts 26°
2026-05-05 13:48 46.20928 10.90226 30048 ft 442 kts 26°
2026-05-05 13:49 46.26340 10.94420 30054 ft 441 kts 26°
2026-05-05 13:49 46.31751 10.98623 30056 ft 441 kts 26°
2026-05-05 13:50 46.37142 11.02825 30049 ft 441 kts 26°
2026-05-05 13:50 46.42843 11.05777 29968 ft 433 kts
2026-05-05 13:51 46.48797 11.05949 29962 ft 428 kts 353°
2026-05-05 13:51 46.54754 11.05515 29948 ft 428 kts 353°
2026-05-05 13:52 46.60709 11.05098 29948 ft 429 kts 353°
2026-05-05 13:52 46.66644 11.04672 29947 ft 430 kts 354°
2026-05-05 13:53 46.72640 11.04245 29937 ft 432 kts 354°
2026-05-05 13:53 46.78646 11.03808 29954 ft 433 kts 354°
2026-05-05 13:54 46.84685 11.02975 29935 ft 433 kts 349°
2026-05-05 13:54 46.90611 11.01723 29912 ft 434 kts 349°
2026-05-05 13:55 46.96646 11.01158 29885 ft 439 kts
2026-05-05 13:55 47.02736 11.02082 29683 ft 442 kts
2026-05-05 13:56 47.05793 11.02559 29371 ft 442 kts
2026-05-05 13:56 47.08836 11.03032 29111 ft 436 kts
2026-05-05 13:56 47.11824 11.03493 28809 ft 428 kts
2026-05-05 13:56 47.14762 11.03944 28452 ft 421 kts
2026-05-05 13:57 47.17663 11.04388 27998 ft 419 kts
2026-05-05 13:57 47.20557 11.04828 27525 ft 418 kts
2026-05-05 13:57 47.23439 11.05264 27074 ft 413 kts
2026-05-05 13:57 47.26291 11.05692 26611 ft 412 kts
2026-05-05 13:58 47.29147 11.06124 26120 ft 411 kts
2026-05-05 13:58 47.31986 11.06562 25658 ft 410 kts
2026-05-05 13:58 47.34816 11.06999 25210 ft 409 kts
2026-05-05 13:58 47.37646 11.07434 24734 ft 407 kts
2026-05-05 13:59 47.43283 11.08303 23777 ft 407 kts
2026-05-05 13:59 47.46092 11.08737 23268 ft 408 kts
2026-05-05 14:00 47.51739 11.09604 22278 ft 405 kts
2026-05-05 14:00 47.54531 11.10072 21799 ft 404 kts
2026-05-05 14:00 47.57236 11.11163 21348 ft 403 kts 22°
2026-05-05 14:00 47.59728 11.13023 20930 ft 398 kts 32°
2026-05-05 14:01 47.62098 11.15090 20503 ft 395 kts 31°
2026-05-05 14:01 47.64436 11.17121 20084 ft 391 kts 31°
2026-05-05 14:01 47.66778 11.19148 19627 ft 389 kts 31°
2026-05-05 14:01 47.69113 11.21164 19197 ft 387 kts 31°
2026-05-05 14:02 47.71412 11.23151 18849 ft 380 kts 31°
2026-05-05 14:02 47.73719 11.25056 18259 ft 379 kts 25°
2026-05-05 14:02 47.76169 11.26485 17777 ft 374 kts 20°
2026-05-05 14:02 47.78584 11.27830 17352 ft 371 kts 20°
2026-05-05 14:03 47.80993 11.29170 16942 ft 369 kts 20°
2026-05-05 14:03 47.83393 11.30503 16546 ft 366 kts 20°
2026-05-05 14:03 47.85774 11.31826 16153 ft 363 kts 19°
2026-05-05 14:03 47.88148 11.33056 15767 ft 360 kts 14°
2026-05-05 14:04 47.90615 11.33609 15441 ft 355 kts
2026-05-05 14:04 47.93085 11.33811 15015 ft 354 kts
2026-05-05 14:04 47.95491 11.34020 14887 ft 340 kts
2026-05-05 14:04 47.97783 11.34225 14683 ft 329 kts
2026-05-05 14:05 48.00053 11.34427 14330 ft 325 kts
2026-05-05 14:05 48.02304 11.34639 13895 ft 323 kts
2026-05-05 14:05 48.04506 11.35493 13048 ft 334 kts 25°
2026-05-05 14:05 48.06420 11.37380 12709 ft 324 kts 43°
2026-05-05 14:06 48.07839 11.39915 12369 ft 315 kts 61°
2026-05-05 14:06 48.08720 11.42886 12126 ft 309 kts 72°
2026-05-05 14:06 48.09447 11.45879 11836 ft 306 kts 72°
2026-05-05 14:06 48.10180 11.48916 11536 ft 305 kts 72°
2026-05-05 14:07 48.10897 11.51892 11237 ft 303 kts 72°
2026-05-05 14:07 48.11612 11.54851 10941 ft 301 kts 72°
2026-05-05 14:07 48.12324 11.57804 10652 ft 300 kts 72°
2026-05-05 14:07 48.13020 11.60688 10365 ft 300 kts 72°
2026-05-05 14:08 48.13714 11.63568 10062 ft 300 kts 72°
2026-05-05 14:08 48.14417 11.66496 9780 ft 298 kts 72°
2026-05-05 14:08 48.15115 11.69409 9476 ft 297 kts 72°
2026-05-05 14:08 48.15809 11.72312 9180 ft 295 kts 72°
2026-05-05 14:09 48.16500 11.75202 8988 ft 294 kts 71°
2026-05-05 14:09 48.17189 11.78086 8803 ft 294 kts 71°
2026-05-05 14:09 48.17885 11.80958 8541 ft 293 kts 69°
2026-05-05 14:09 48.18825 11.83650 8271 ft 292 kts 60°
2026-05-05 14:10 48.19860 11.86267 8001 ft 291 kts 60°
2026-05-05 14:10 48.20890 11.88876 7723 ft 290 kts 60°
2026-05-05 14:10 48.21909 11.91467 7433 ft 289 kts 60°
2026-05-05 14:10 48.22923 11.94056 7183 ft 288 kts 60°
2026-05-05 14:11 48.23936 11.96641 6913 ft 287 kts 60°
2026-05-05 14:11 48.24945 11.99218 6643 ft 286 kts 60°
2026-05-05 14:11 48.25950 12.01787 6373 ft 284 kts 60°
2026-05-05 14:11 48.26945 12.04334 6000 ft 281 kts 60°
2026-05-05 14:12 48.28003 12.06674 5854 ft 268 kts 50°
2026-05-05 14:12 48.29398 12.08425 5689 ft 251 kts 23°
2026-05-05 14:12 48.31009 12.08960 5562 ft 234 kts
2026-05-05 14:12 48.32598 12.08818 5264 ft 226 kts 346°
2026-05-05 14:13 48.34045 12.07921 4874 ft 223 kts 323°
2026-05-05 14:13 48.35160 12.06361 4696 ft 218 kts 304°
2026-05-05 14:13 48.35859 12.04370 4504 ft 215 kts 286°
2026-05-05 14:13 48.36089 12.02171 4263 ft 212 kts 268°
2026-05-05 14:14 48.35945 11.99974 3997 ft 210 kts 263°
2026-05-05 14:14 48.35786 11.97817 3724 ft 203 kts 262°
2026-05-05 14:14 48.35633 11.95760 3465 ft 194 kts 262°
2026-05-05 14:14 48.35486 11.93796 3239 ft 184 kts 262°
2026-05-05 14:15 48.35346 11.91923 2992 ft 175 kts 262°
2026-05-05 14:15 48.35214 11.90159 2768 ft 163 kts 262°
2026-05-05 14:15 48.35094 11.88565 2572 ft 145 kts 262°
2026-05-05 14:15 48.34983 11.87125 2332 ft 134 kts 263°
2026-05-05 14:16 48.34877 11.85747 2162 ft 134 kts 263°
2026-05-05 14:16 48.34770 11.84342 2019 ft 133 kts 265°
2026-05-05 14:16 48.34672 11.82989 1836 ft 133 kts 265°
2026-05-05 14:16 48.34568 11.81626 1703 ft 133 kts 265°
2026-05-05 14:17 48.34461 11.80239 1527 ft 134 kts 265°
2026-05-05 14:17 48.34365 11.78981 1485 ft 93 kts 263°
2026-05-05 14:17 48.34322 11.78379 1485 ft 41 kts 266°
2026-05-05 14:17 48.34327 11.77972 1478 ft 37 kts 288°
2026-05-05 14:18 48.34418 11.77637 1481 ft 26 kts 294°
2026-05-05 14:18 48.34456 11.77509 1476 ft 11 kts 298°
2026-05-05 14:18 48.34517 11.77440 1483 ft 12 kts 343°
2026-05-05 14:18 48.34599 11.77430 1485 ft 12 kts 13°
2026-05-05 14:19 48.34636 11.77533 1485 ft 12 kts 84°
2026-05-05 14:19 48.34645 11.77662 1481 ft 13 kts 84°
2026-05-05 14:19 48.34655 11.77798 1483 ft 13 kts 83°
2026-05-05 14:19 48.34698 11.77893 1485 ft 9 kts
2026-05-05 14:20 48.34735 11.77842 1482 ft 7 kts 309°
2026-05-05 14:20 48.34783 11.77777 1481 ft 17 kts 328°
2026-05-05 14:20 48.34897 11.77838 1483 ft 14 kts
2026-05-05 14:20 48.34998 11.77817 1485 ft 15 kts 353°
2026-05-05 14:21 48.35099 11.77799 1485 ft 14 kts 354°
2026-05-05 14:21 48.35190 11.77785 1477 ft 12 kts 354°
2026-05-05 14:21 48.35268 11.77770 1485 ft 11 kts 352°
2026-05-05 14:21 48.35320 11.77758 1485 ft 5 kts 335°
2026-05-05 14:22 48.35323 11.77728 1485 ft 2 kts 263°
2026-05-05 14:22 48.35321 11.77698 1485 ft 3 kts 263°
2026-05-05 14:22 48.35320 11.77686 1485 ft 0 kts 263°